Regional Weather Roundup
Issued by NWS

Home | Current Version | Previous Version | Graphics & Text | Print | Product List | Glossary On
Versions: 1 2 3 4 5 6 7 8 9 10 11 12 13 14 15 16 17 18 19 20 21 22 23 24 25 26 27 28 29 30 31 32 33 34 35 36 37 38 39 40 41 42 43 44 45 46 47 48 49 50
000
ASUS45 KTFX 251519
RWRMT
MONTANA HOURLY WEATHER ROUNDUP
NATIONAL WEATHER SERVICE GREAT FALLS MT
919 AM MDT SAT OCT 25 2014

NOTE: "FAIR" INDICATES FEW OR NO CLOUDS BELOW 12000 FEET WITH NO
SIGNIFICANT WEATHER AND/OR OBSTRUCTIONS TO VISIBILITY.

* THESE STATIONS ARE NOT UNDER NWS QUALITY CONTROL. THEY DO NOT
   REPORT WEATHER SUCH AS PRECIPITATION OR FOG.

MTZ001>007-043-251600-
WEST OF THE DIVIDE
CITY           SKY/WX    TMP DP  RH WIND       PRES   REMARKS
KALISPELL      CLOUDY    41  37  86 CALM      29.88F
MISSOULA       PTCLDY    41  41 100 S5        29.92F
BUTTE          SUNNY     28  27  96 CALM      30.01S
MULLAN PASS    FOG       36  36 100 S13       29.84F VSB M1/4 WCI  27
* ESSEX        N/A       38  34  86 S9         N/A   WCI  32
* LINCOLN      N/A       31  31 100 SE1        N/A
* LOOKOUT PASS N/A       40  40 100 S9G20      N/A   WCI  34
* POLSON       N/A       38  38 100 N/A        N/A
* RONAN APT    PTSUNNY   37  36  96 N/A        N/A
* SEELEY LAKE  N/A       37  36  96 N/A        N/A
* THOMP F APT  CLOUDY    47  22  37 N3G8       N/A
$$

MTZ008-052>055-251600-
SOUTHWEST MONTANA
CITY           SKY/WX    TMP DP  RH WIND       PRES   REMARKS
BOZEMAN        FOG       30  30 100 E3        30.02S VSB M1/4
DILLON         PTCLDY    34  32  92 CALM      30.01S
W YELLOWSTONE  SUNNY     30  27  89 CALM      30.16S
* THREE FORKS  SUNNY     36  18  48 N/A        N/A
* BOULDER HILL N/A       35  31  85 SW12       N/A   WCI  27
* MONIDA PASS  N/A       45  24  44 S13        N/A
* RAYNOLDS PAS N/A       33  20  59 S4         N/A
* WHITEHALL    N/A       35  35 100 NW4        N/A
* WISE RIVER   N/A       33  32  96 NW3        N/A
$$

MTZ009>010-012-014-046-048-049-054-251600-
EAST SLOPES AND CENTRAL MONTANA
CITY           SKY/WX    TMP DP  RH WIND       PRES   REMARKS
CUT BANK       CLOUDY    41  32  70 SE6       29.95F
GREAT FALLS    PTCLDY    37  37 100 CALM      29.94F
HELENA         SUNNY     37  36  96 CALM      29.98F
MALMSTROM AFB  SUNNY     37  37 100 E2        29.97F
* CONRAD       PTSUNNY   30  28  92 N/A        N/A
* DEARBORN     N/A       34  34 100 SW2        N/A
* EAST GLACIER N/A       35  33  92 NW2        N/A
* MONARCH      N/A       37  30  76 SE4        N/A
* PENDROY      N/A       38  36  93 SE2        N/A
* ROGERS PASS  N/A       38  34  86 SE3G9      N/A
* SAINT MARY   N/A       33  31  92 SE3        N/A
* SWEET GRASS  N/A       41  28  60 S9         N/A
* WHITE SULPH  N/A       42  36  79 NE6G15     N/A
$$

MTZ011-013-016-021-035-040-045-047-050-051-251600-
NORTH CENTRAL MONTANA
CITY           SKY/WX    TMP DP  RH WIND       PRES   REMARKS
HAVRE          CLOUDY    41  32  70 E13       29.99S
LEWISTOWN      SUNNY     43  37  79 S6        29.99S
* FORT BENTON  PTCLDY    46  36  68 E6        29.97F
* CHESTER      N/A       42  28  58 E6         N/A
* DENTON       N/A       45  35  68 NE4G11     N/A
* JUDITH GAP   N/A       38  35  89 SE7        N/A   WCI  33
* LOMA         N/A       45  32  60 NE13       N/A
$$

MTZ017>020-022>027-061-062-251600-
NORTHEAST MONTANA
CITY           SKY/WX    TMP DP  RH WIND       PRES   REMARKS
GLASGOW        PTSUNNY   45  32  60 E8        30.06F
GLENDIVE       SUNNY     46  34  63 CALM      30.13S
JORDAN         SUNNY     36  30  79 CALM      30.06F
SIDNEY         PTCLDY    43  36  76 CALM      30.14S
WOLF POINT     PTSUNNY   41  34  76 E5        30.10F
* BEAVER HILL  N/A       47  30  52 SE8        N/A
* CIRCLE       N/A       40  33  76 N/A        N/A
* LINDSAY DVD  N/A       46  29  52 E4         N/A
* NAVAJO       N/A       41  27  58 SE1        N/A
$$

MTZ028>042-056>058-251600-
SOUTHCENTRAL AND SOUTHEAST MONTANA
CITY           SKY/WX    TMP DP  RH WIND       PRES   REMARKS
BAKER          SUNNY     43  34  71 E7        30.13F
BILLINGS       SUNNY     37  32  82 S9        30.04F WCI  30
LIVINGSTON     FOG       34  32  92 CALM      30.03F VSB 3
MILES CITY     SUNNY     43  34  71 NE6       30.08F
* LAUREL APT   SUNNY     34  27  76 N/A        N/A
* ROUNDUP APT  SUNNY     36  30  79 S7         N/A   WCI  30
* ALZADA       N/A       39  32  76 E2         N/A
* HYSHAM       N/A       50  30  46 E4         N/A
* LAME DEER    N/A       45  30  56 SE8G14     N/A
* REED POINT   N/A       29  28  96 W1         N/A
* ROSCOE HILL  N/A       45  33  63 NW1        N/A
$$

REGIONAL REPORTS...DAKOTAS
CITY           SKY/WX    TMP DP  RH WIND       PRES   REMARKS
WILLISTON      PTSUNNY   43  34  71 CALM      30.13S
DICKINSON      SUNNY     46  34  63 S3        30.13S
BEACH          N/A       45  34  65 S5        30.14S
CROSBY         SUNNY     37  36  96 S8        30.13R WCI  31
TIOGA          PTSUNNY   34  34 100 CALM      30.17R
BISMARCK       PTCLDY    46  34  63 S3        30.18R
GRAND FORKS    SUNNY     48  32  54 NW15      30.07R
FARGO          PTCLDY    48  34  59 W15       30.10R
BUFFALO SD     SUNNY     46  32  58 E3        30.08S
RAPID CITY     SUNNY     48  34  59 S5        30.17S
$$

REGIONAL REPORTS...WYOMING/IDAHO/WASHINGTON
CITY           SKY/WX    TMP DP  RH WIND       PRES   REMARKS
GILLETTE       SUNNY     48  34  59 S13       30.12S
SHERIDAN       PTCLDY    39  34  82 CALM      30.06F
CODY           SUNNY     48  30  50 CALM      30.07F
YELLOWSTONE LA SUNNY     30  27  89 CALM      30.23S
SALMON         CLOUDY    41  37  86 SW8       30.00S
MULLAN PASS    FOG       36  36 100 S13       29.84S VSB M1/4 WCI  27
SAND POINT     CLOUDY    43  39  86 NE15      29.79F
SPOKANE        CLOUDY    45  39  80 NE10      29.70F
$$

REGIONAL REPORTS...ALBERTA
CITY           SKY/WX    TMP DP  RH WIND       PRES   REMARKS
CALGARY        CLOUDY    36  21  54 CALM      29.95F
LETHBRIDGE     PTSUNNY   41  34  76 SE8       29.95F
MEDICINE HAT   CLOUDY    39  32  76 NE3       30.00F
EDMONTON       PTSUNNY   27  21  78 S3        29.98F
WATERTON GATE  N/A       34  34 100 CALM       N/A
CARDSTON       N/A       37  34  89 SE3        N/A
MILK RIVER     N/A       37  30  76 SE1        N/A
$$

REGIONAL REPORTS...SASKATCHEWAN
CITY           SKY/WX    TMP DP  RH WIND       PRES   REMARKS
SWIFT CURRENT  PTCLDY    37  28  70 SW6       30.04S WCI  32
REGINA         SUNNY     34  30  85 S5        30.08R WCI  29
VAL MARIE      N/A       34  32  92 NE5        N/A   WCI  29
ASSINIBOIA     N/A       39  30  70 SE3        N/A
CORONACH       N/A       30  30 100 NE1        N/A

$$




USA.gov is the U.S. government's official web portal to all federal, state and local government web resources and services.